www.pogodaiklimat.ru

Погода и климат >> Архив погоды >> Индонезия >> Merauke


ПОГОДА в Merauke

  • Прогноз погоды в Merauke
  • Монитор погоды в Merauke
  • Климат города

АРХИВ ПОГОДЫ в Merauke

Время (UTC), дата Ветер
(напр.,м/с)
 
Видим.   Явления Облачность Т
(С)
Тd
(С)
f
(%)
Тe
(С)
Тes
(С)
Комфортность P
(гПа)
Po
(гПа)
Тmin
(С)
Tmax
(С)
R
(мм)
R24
(мм)
S
(см)
03 13.01 ЮЗ 4 10 км 6/5 500 м
[Cu med, cong Ac trans Ci fib]
+31.8 +24.0 63 +43 +50 опасность
перегрева
1007.5 1007.1
06 13.01 Ю 4 10 км 6/4 500 м
[Cu Sc Ac lent Ci sp]
+31.6 +25.6 71 +47 +50 опасность
перегрева
1004.9 1004.5
09 13.01 ЮВ 3 10 км 6/4 500 м
[Cu Sc Ac lent Ci sp]
+30.0 +24.5 72 +42 +42 опасность
перегрева
1005.9 1005.5
12 13.01 ЮВ 2 9000 м 4/3 500 м
[Cu hum Ac lent Ci fib]
+28.5 +23.5 74 +39 +39 очень
душно
1007.5 1007.2 +32.3
15 13.01 ЮВ 2 8000 м 5/4 540 м
[Sc Ac trans Ci fib]
+27.1 +23.6 81 +37 +37 очень
душно
1007.4 1007.1
18 13.01 штиль 0 8000 м 5/3 500 м
[Cu hum Ac lent Ci fib]
+26.0 +23.7 87 +35 +35 очень
душно
1005.9 1005.5
21 13.01 В 1 9000 м 8/5 500 м
[Cu hum Ac lent Ci fib]
+25.7 +23.8 89 +35 +35 очень
душно
1007.4 1007.1
00 14.01 СВ 2 10 км 8/5 500 м
[Cu med, cong Ac lent Ci sp]
+30.9 +23.9 66 +42 +47 опасность
перегрева
1008.8 1008.4 +25.7
03 14.01 В 2 10 км 8/6 480 м
[Cu Sc Ac lent Ci sp]
+33.9 +21.8 49 +42 +49 опасность
перегрева
1006.4 1006.0
06 14.01 Ю 3 10 км 8/6 500 м
[Cu Sc Ac lent Ci sp]
+30.9 +24.2 68 +43 +46 опасность
перегрева
1004.2 1003.8
09 14.01 Ю 3 10 км 8/6 500 м
[Cu Sc Ac lent Ci sp]
+29.7 +24.3 73 +42 +42 опасность
перегрева
1004.5 1004.1
12 14.01 Ю 2 9000 м 6/5 480 м
[Cu Sc Ac lent Ci sp]
+29.1 +24.8 78 +42 +42 опасность
перегрева
1006.4 1006.0 +34.2
15 14.01 З 1 4000 м дождь 9/8 480 м
[Cu Sc Ac lent Ci sp]
+27.5 +25.1 87 +40 +40 очень
душно
1006.3 1005.9 2
18 14.01 СЗ 3 7000 м в посл. час гроза 9/8 480 м
[Cb cap Ac lent Ci sp]
+25.7 +23.7 89 +35 +35 очень
душно
1005.4 1005.0 2
21 14.01 СЗ 2 4000 м слабый дождь 9/8 480 м
[Cu Sc Ac lent Ci sp]
+25.3 +24.1 93 +35 +35 очень
душно
1007.0 1006.6 6
00 15.01 СВ 3 5000 м слабый дождь 9/6 300 м
[Cu Sc Ac As Ci sp]
+24.9 +23.6 92 +34 +36 очень
душно
1007.9 1007.5 +24.8 2
03 15.01 С 2 10 км {дождь} 8/5 480 м
[Cu Sc Ac lent Ci sp]
+31.3 +24.9 69 +45 +52 опасность
перегрева
1006.3 1005.9 0.2
06 15.01 З 2 10 км 9/6 480 м
[Cu Sc Ac lent Ci sp]
+31.8 +22.5 58 +41 +44 опасность
перегрева
1002.7 1002.3 0.2
09 15.01 ЮЗ 2 10 км 8/6 540 м
[Cu med, cong Ac trans Ci sp]
+29.6 +23.7 71 +41 +41 опасность
перегрева
1004.1 1003.7
12 15.01 штиль 0 8000 м 4/3 500 м
[Cu hum Ci fib]
+27.9 +24.4 81 +39 +39 очень
душно
1005.2 1004.8 +32.0
15 15.01 С 2 8000 м 4/3 540 м
[Cu med, cong Ci fib]
+26.9 +24.9 89 +39 +39 очень
душно
1005.4 1005.4
18 15.01 штиль 0 7000 м 8/6 540 м
[Cu Sc Ac trans Ci sp]
+26.4 +25.0 92 +38 +38 очень
душно
1004.7 1004.3
21 15.01 СЗ 2 4000 м слабый дождь {гроза} 10/9 540 м
[Cu Sc Ac lent Ci sp]
+25.2 +24.0 93 +35 +35 очень
душно
1005.7 1005.4 2
00 16.01 СЗ 2 10 км {дождь} 8/5 300 м
[Cu Sc Ac lent Ci sp]
+28.1 +25.0 83 +40 +45 очень
душно
1007.1 1006.7 +25.0 0.8
03 16.01 З 3 10 км 8/5 480 м
[Cu Sc Ac lent Ci sp]
+30.0 +24.2 71 +42 +48 опасность
перегрева
1005.0 1004.7
06 16.01 ЮЗ 3 10 км 8/6 500 м
[Cu Sc Ac lent Ci sp]
+30.6 +24.4 70 +43 +46 опасность
перегрева
1002.5 1002.1
09 16.01 Ю 2 10 км 8/6 500 м
[Cu Sc Ac lent Ci sp]
+29.7 +24.1 72 +41 +41 опасность
перегрева
1003.7 1003.3
12 16.01 З 1 10 км 6/4 540 м
[Cu med, cong Ac lent Ci sp]
+27.1 +24.3 85 +38 +38 очень
душно
1005.7 1005.3 +32.2
15 16.01 штиль 0 10 км 6/4 540 м
[Cu med, cong Ac lent Ci sp]
+26.2 +24.7 91 +37 +37 очень
душно
1006.5 1006.1
18 16.01 СВ 2 8000 м 9/6 500 м
[Cu Sc Ac lent Ci sp]
+25.9 +24.3 91 +36 +36 очень
душно
1004.7 1004.3
21 16.01 СВ 1 8000 м 9/8 480 м
[Cu Sc Ac lent Ci sp]
+24.7 +23.3 92 +33 +33 очень
душно
1006.0 1005.7
00 17.01 СВ 1 10 км 9/6 480 м
[Cu Sc Ac lent Ci sp]
+27.3 +24.3 84 +38 +42 очень
душно
1007.4 1007.1 +24.6
03 17.01 СЗ 2 4000 м слабый дождь 10/9 480 м
[Cu Sc Ac lent Ci sp]
+25.2 +24.0 93 +35 +36 очень
душно
1006.4 1006.0 5
06 17.01 ЮЗ 1 6000 м 10/8 480 м
[Cu Sc Ac lent Ci sp]
+25.7 +24.0 90 +35 +36 очень
душно
1004.4 1004.0 5
09 17.01 штиль 0 8000 м 9/6 480 м
[Cu Sc Ac lent Ci sp]
+26.7 +24.0 85 +37 +37 очень
душно
1004.7 1004.3
12 17.01 штиль 0 8000 м 8/6 500 м
[Cu Sc Ac lent Ci sp]
+25.8 +24.5 93 +36 +36 очень
душно
1007.4 1007.1 +29.0
15 17.01 штиль 0 7000 м 8/6 500 м
[Cu Sc Ac lent Ci sp]
+25.1 +24.2 95 +35 +35 очень
душно
1007.1 1006.7
18 17.01 штиль 0 7000 м 8/6 500 м
[Cu Sc Ac lent Ci sp]
+24.8 +23.8 94 +34 +34 очень
душно
1005.1 1005.7
21 17.01 штиль 0 9000 м 8/6 480 м
[Cu Sc Ac lent Ci sp]
+24.7 +23.7 94 +34 +34 очень
душно
1007.0 1006.6
00 18.01 СВ 2 10 км 9/8 480 м
[Cu Sc Ac lent Ci sp]
+27.5 +25.1 87 +40 +42 очень
душно
1008.8 1008.4 +24.2 5
03 18.01 З 4 10 км 9/6 480 м
[Cu Sc Ac lent Ci sp]
+29.4 +24.7 76 +42 +46 опасность
перегрева
1006.1 1006.7 2
06 18.01 З 4 8000 м 9/8 480 м
[Cu Sc Ac lent Ci sp]
+28.0 +22.6 73 +37 +38 очень
душно
1005.8 1005.4 2
09 18.01 З 2 6000 м слабый дождь 9/8 480 м
[Cu Sc Ac lent Ci sp]
+27.9 +24.4 81 +39 +39 очень
душно
1007.0 1006.6 1
12 18.01 СВ 1 7000 м {дождь} 9/8 480 м
[Cu Sc Ac lent Ci sp]
+25.8 +24.5 93 +36 +36 очень
душно
1008.2 1007.8 +30.0 21
15 18.01 штиль 0 7000 м 9/8 500 м
[Cu Sc Ac lent Ci sp]
+25.1 +23.9 93 +34 +34 очень
душно
1008.2 1007.9 0.4
18 18.01 штиль 0 8000 м 9/8 480 м
[Cu Sc Ac lent Ci sp]
+24.4 +23.3 94 +33 +33 очень
душно
1006.9 1006.5 0.4
21 18.01 З 3 4000 м слабый дождь 10/9 480 м
[Cu Sc Ac lent Ci sp]
+24.8 +24.0 95 +34 +34 очень
душно
1009.2 1008.8 2
00 19.01 СВ 2 5000 м в посл. час дождь 10/9 300 м
[Cu Sc Ac lent Ci sp]
+24.1 +23.4 96 +32 +33 очень
душно
1010.2 1009.8 +24.0 10
03 19.01 ЮВ 2 7000 м {дождь} 10/9 450 м
[Cu Sc Ac lent Ci sp]
+27.4 +25.1 87 +39 +40 очень
душно
1008.2 1007.9 1
06 19.01 штиль 0 4000 м гроза, ливневой дождь 10/9 450 м
[Cb cap As op Ci sp]
+25.6 +23.9 90 +35 +36 очень
душно
1006.7 1006.3 4
09 19.01 штиль 0 7000 м {дождь} 9/6 480 м
[Cu Sc Ac lent Ci sp]
+25.8 +24.5 93 +36 +36 очень
душно
1007.0 1006.6 1
12 19.01 штиль 0 7000 м 9/6 480 м
[Cu Sc Ac lent Ci sp]
+25.4 +24.3 94 +35 +35 очень
душно
1007.9 1007.5 +30.0 0.4
15 19.01 штиль 0 7000 м 8/6 480 м
[Cu Sc Ac lent Ci sp]
+25.0 +24.3 96 +35 +35 очень
душно
1007.8 1007.4
18 19.01 штиль 0 7000 м 6/4 500 м
[Cu med, cong Ac lent Ci sp]
+24.7 +23.9 95 +34 +34 очень
душно
1005.7 1005.3
21 19.01 штиль 0 8000 м 8/3 540 м
[Cu med, cong Ac lent Ci sp]
+24.0 +23.3 96 +32 +32 очень
душно
1007.0 1006.6
00 20.01 С 3 10 км 6/5 500 м
[Cu Sc Ac lent Ci sp]
+28.8 +24.9 79 +41 +46 опасность
перегрева
1008.1 1007.7 +24.0 7

 

Местоположение метеостанции Merauke (Индонезия): широта -8.47 долгота 140.38 высота над уровнем моря 3 м.

В архиве по умолчанию представлена погода в Merauke за последнюю неделю. Архивные данные за месяц целиком и за предыдущие месяцы, начиная с января 2011 года, Вы можете получить, выбрав интересующий диапазон дат из раскрывающегося списка и нажав кнопку "Ввод!".

Внимание! Время в таблицах - всемирное. Для получения местного времени необходимо прибавить поправку, которая в Merauke равна 9 ч.

Смотрите также архив погоды в соседних городах и на ближайших метеорологических станциях:

Погода в Tanah Merah (Индонезия) (264 км)
Погода в Horn Island (Квинсленд, Австралия) (314 км)
Погода в Coconut Island (Квинсленд, Австралия) (344 км)
Погода в Cape Wessel (Северная территория, Австралия) (488 км)
Погода в Weipa Aero (Квинсленд, Австралия) (497 км)
Погода в Scherger Raaf (Квинсленд, Австралия) (498 км)
Погода в Kokonao (Индонезия) (504 км)
Погода в Wamena (Индонезия) (514 км)
Погода в Lockhart River Airport (Квинсленд, Австралия) (576 км)
Погода в Gove Airport (Северная территория, Австралия) (576 км)

Пояснения к столбцам:

Ветер - указаны скорость ветра в м/с - средняя за 10 мин, порывы в срок и между сроками (в фигурных скобках) и направление, откуда дует ветер: С - северный, СВ - северо-восточный, В - восточный, ЮВ - юго-восточный, Ю - южный, ЮЗ - юго-западный, З - западный, СЗ - северо-западный.
Видимость - горизонтальная дальность видимости в метрах или километрах. При видимости от 1 до 10 км при отсутствии осадков обычно наблюдается дымка, при ухудшении видимости до 1 км и менее - туман. В сухую погоду видимость может ухудшаться дымом, пылью или мглою.
Явления - указаны атмосферные явления, наблюдавшиеся в срок или в последний час перед сроком; фигурными скобками обозначены явления, наблюдавшиеся между сроками (за 1-3 часа до срока); квадратными скобками обозначены град или гололедные отложения с указанием их диаметра в мм.
Облачность - указаны через наклонную черту общая и нижняя облачность в баллах и высота нижней границы облаков в метрах; квадратными скобками обозначены формы облаков: Ci - перистые, Cs - перисто-слоистые, Cc - перисто-кучевые, Ac - высококучевые, As - высокослоистые, Sc - слоисто-кучевые, Ns - слоисто-дождевые, Cu - кучевые, Cb - кучево-дождевые. Подробнее классификацию облаков см. в Атласе облаков (PDF).
T - Температура воздуха - температура, измеренная на высоте 2 м над землей.
Td - Температура точки росы - температура, при понижении до которой содержащийся в воздухе водяной пар достигнет насыщения.
f - Относительная влажность воздуха - влажноcть воздуха, измеренная на высоте 2 м над землей.
Te - Эффективная температура - температура, которую ощущает одетый по сезону человек в тени. Характеристика душности погоды. При расчете учитывается влияние влажности воздуха и скорости ветра на теплоощущения человека.
Tes - Эффективная температура на солнце - температура, которую ощущает человек, с поправкой на солнечный нагрев. Характеристика знойности погоды. Зависит от высоты солнца над горизонтом, облачности и скорости ветра. Ночью, в пасмурную погоду, а также при ветре 12 м/с и более поправка равна нулю.
P - Атмосферное давление - приведенное к уровню моря атмосферное давление.
Po - Атмосферное давление - измеренное на уровне метеостанции атмосферное давление.
Tmin - Минимальная температура - минимум температуры воздуха на высоте 2 м над землей.
Tmax - Максимальная температура - максимум температуры воздуха на высоте 2 м над землей.
R - Количество осадков - Количество выпавших осадков за период времени, мм. При наведении курсора мыши на число - период времени, за который выпало указанное количество осадков.
R24 - Количество осадков - Количество выпавших осадков за 24 часа, мм.
S - Снежный покров - Высота снежного покрова, см. При наведении курсора мыши на число - состояние снежного покрова и степень покрытия местности в баллах.